BEESAT-1 (35933 NORAD) Tracking and Keplerian Element Data

This shows tracking and keplerian element data for the satellite.

Feedback or suggestion? Click here.




ElementValue
Catalog35933
NameBEESAT-1
Epoch Orbit69906
Epoch Day325.11900407
Epoch Year2022
RAAN186.7995
Inclination98.5394
Eccentricity0.0004845
Argument of Perigee307.964
Mean Anonmoly52.1119
Mean Motion14.57076014
Decay Rate6.21E-06
L11 35933U 09051C 22325.11900407 .00000621 00000+0 14872-3 0 9997
L22 35933 98.5394 186.7995 0004845 307.9640 52.1119 14.57076014699062



Live tracking and technical data element details for BEESAT-1 (NORAD 35933). BEESAT-1 can be tracked NOW for your location showing map with azimuth and elevation plus other details from your city location.







IsCatalogInMostPopularTable: catalog: 35933, numindb: 297
Update: records affected: 1



GetName: 35933 BEESAT-1

Hit Count: updated at: Fri, 02 Dec 2022 13:14:24 GMT